User: anonymous   Login
Location: Unspecified
(0.0000°N, 0.0000°E)
Time: 06:38:25
(UTC+02:00)
Language:

ARIANE 5 R/B - Orbit

View from above orbital plane
View from above orbital plane
View from above satellite
View from above satellite

Ground track
Ground track

The orbit data is extracted from the following two-line orbital elements,

1 27510U 02040C   15212.70106998 -.00000123  00000-0 -28068-3 0  9997
2 27510 005.0451 110.9791 7169085 174.6740 040.1477 02.27186551107294
Epoch (UTC): 31 July 2015 16:49:32
Eccentricity: 0.7169085
inclination: 5.0451°
perigee height: 541 km
apogee height: 35587 km
right ascension of ascending node: 110.9791°
argument of perigee: 174.6740°
revolutions per day: 2.27186551
mean anomaly at epoch: 40.1477°
orbit number at epoch: 10729

The dashed part of the orbit path shows where the satellite is in the earth's shadow,  

DLR